Regional Weather Roundup
Issued by NWS Albany, NY

Home | Current Version | Previous Version | Text Only | Print | Product List | Glossary On
Versions: 1 2 3 4 5 6 7 8 9 10 11 12 13 14 15 16 17 18 19 20 21 22 23 24 25 26 27 28
000
ASUS41 KALY 050410
RWRALY

NEW YORK STATE HOURLY WEATHER ROUNDUP
NATIONAL WEATHER SERVICE ALBANY NY
1200 AM EDT THU MAY 05 2016

NOTE: "FAIR" INDICATES FEW OR NO CLOUDS BELOW 12,000 FEET WITH NO
SIGNIFICANT WEATHER AND/OR NO OBSTRUCTIONS TO VISIBILITY.

NYZ032-033-038>043-046>054-057>066-NYZ062>081-082-084-050500-
EAST


CITY           SKY/WX    TMP DP  RH WIND       PRES   REMARKS
ALBANY         CLOUDY    48  43  82 CALM      29.80S
GLENS FALLS    CLOUDY    48  42  80 N7        29.81S
POUGHKEEPSIE   CLOUDY    49  43  80 N3        29.76F
NEWBURGH       MOCLDY    46  45  93 NE9       29.77F
MONTGOMERY     CLOUDY    47  43  86 NE8       29.76S
WHITE PLAINS   CLOUDY    47  42  83 NE8       29.73F
ISLIP          CLOUDY    46  42  86 N13       29.73S
NEW YORK CITY  CLOUDY    50  45  83 NE10G20   29.74S
CENTRAL PARK   CLOUDY    49  41  74 NE10G21   29.76F
$$

NYZ005>009-017-018-044>046-055-056-050500-
CENTRAL


CITY           SKY/WX    TMP DP  RH WIND       PRES   REMARKS
FULTON         PTCLDY    51  44  77 VRB6      29.76S
SYRACUSE       MOCLDY    47  44  90 E8        29.76S
ROME           CLOUDY    49  44  83 SE6       29.79S
ELMIRA         CLOUDY    52  44  74 CALM      29.73S
BINGHAMTON     CLOUDY    45  44  97 SE7       29.73F FOG
MONTICELLO     CLOUDY    43  43 100 E6        29.76F
$$

NYZ026>034-041>043-087-050500-
NORTH


CITY           SKY/WX    TMP DP  RH WIND       PRES   REMARKS
WATERTOWN      CLOUDY    50  48  93 NE3       29.77S
FORT DRUM      NOT AVBL
MASSENA        CLOUDY    50  45  83 NE5       29.82S
SARANAC LAKE   CLOUDY    44  41  89 CALM      29.78S
PLATTSBURGH    CLOUDY    44  43  96 CALM      29.82S FOG
$$

NYZ001>004-010>016-019>021-085-050500-
WEST


CITY           SKY/WX    TMP DP  RH WIND       PRES   REMARKS
NIAGARA FALLS  MOCLDY    49  42  77 NE5       29.73S
BUFFALO        CLOUDY    51  43  74 NE9       29.72S
DUNKIRK        MOCLDY    52  45  77 NE7       29.70S
JAMESTOWN      MOCLDY    52  41  66 NE8       29.69S
WELLSVILLE     CLOUDY    49  46  90 CALM      29.72F
ROCHESTER      CLOUDY    53  48  83 E7        29.74R
PENN YAN       LGT RAIN  51  48  89 CALM      29.74S
$$

             KEY
       WCI = WIND CHILL INDEX
       VSB = VISIBILITY
       HX  = HEAT INDEX
$$




USA.gov is the U.S. government's official web portal to all federal, state and local government web resources and services.